Zurück zum Katalog

NUSAT-33

ALBANIA-2

AktivWissenschaftSSO
NORAD 55047·PAYLOAD·🇦🇷 Argentina

Gestartet Jan 3, 2023 von Cape Canaveral Space Force Station

Loading…

Nächste Überflüge (nächste 24 Stunden)

TLE

AktuellSource: Space-Track

Epoche: Sep 14, 2026, 15:15 UTC

1 55047U 23001AQ  26257.63596794  .00007569  00000-0  26974-3 0  9996
2 55047  97.2975 316.8390 0007997  90.5502 269.6655 15.29170311205977

Verfolge NUSAT-33 in Echtzeit mit AllMySat

Download on the App Store